Location: Caltech
(34.1382°N, 118.1253°W)
Time: 12:08:15
(UTC-08:00)

ADEOS II - Visible Passes

Search period start: 21 December 2014 00:00
Search period end: 31 December 2014 00:00
Orbit: 800 x 803 km, 98.3° (Epoch: 21 December)

Date Brightness Start Highest point End Pass type
(mag) Time Alt. Az. Time Alt. Az. Time Alt. Az.
21 Dec 4.2 04:53:10 10° NE 04:57:38 28° E 05:02:03 10° SSE visible
21 Dec 4.3 17:48:48 10° SSW 17:53:16 28° W 17:57:46 10° NW visible
22 Dec 5.0 04:28:24 10° ENE 04:31:21 15° E 04:34:17 10° SE visible
22 Dec 2.2 06:06:16 10° N 06:11:22 53° WNW 06:16:26 10° SSW visible
22 Dec 3.1 17:22:00 10° S 17:27:06 52° W 17:32:13 10° NNW visible
23 Dec 2.1 05:40:04 10° NNE 05:45:21 85° ESE 05:50:35 10° SSW visible
24 Dec 3.2 05:14:12 10° NNE 05:19:14 46° E 05:24:15 10° S visible
24 Dec 5.0 18:11:36 10° SW 18:14:57 17° W 18:18:18 10° NW visible
25 Dec 4.3 04:48:44 10° NE 04:53:02 25° E 04:57:18 10° SSE visible
25 Dec 4.1 17:44:05 10° SSW 17:48:41 31° W 17:53:19 10° NW visible
26 Dec 5.1 04:24:11 10° ENE 04:26:44 14° E 04:29:17 10° ESE visible
26 Dec 2.1 06:01:39 10° N 06:06:48 58° WNW 06:11:56 10° SSW visible
26 Dec 2.9 17:17:22 10° S 17:22:30 57° W 17:27:41 10° NNW visible
27 Dec 2.2 05:35:30 10° NNE 05:40:46 78° ESE 05:46:00 10° S visible
28 Dec 3.4 05:09:40 10° NNE 05:14:38 42° E 05:19:34 10° S visible
28 Dec 5.0 18:06:43 10° SW 18:10:19 19° W 18:13:57 10° NW visible
29 Dec 4.4 04:44:18 10° NE 04:48:25 23° E 04:52:31 10° SSE visible
29 Dec 2.7 06:23:26 10° N 06:28:11 35° WNW 06:32:54 10° SW visible
29 Dec 4.0 17:39:21 10° SSW 17:44:04 34° W 17:48:49 10° NNW visible
30 Dec 5.2 04:20:02 10° ENE 04:22:06 12° E 04:24:10 10° ESE visible
30 Dec 2.1 05:57:01 10° N 06:02:13 64° WNW 06:07:23 10° SSW visible
30 Dec 2.7 17:12:43 10° S 17:17:54 63° W 17:23:07 10° NNW visible
